sat.trackr.live / text

‹ back to catalog

STARLINK-31779

NORAD 59744 · 2024-090Q

PAYLOAD ACTIVE UNKNOWN

§ Identity

Operator
Country
US
Launch date
2024-05-13
Launch site
AFETR
Launch vehicle
Mass (kg)
RCS (m²)

Purposes: comms

External: N2YO · Heavens-Above · Gunter

§ Orbital elements

Epoch: 2026-09-21T03:17:19.622688Z

Period
94.27 min
Inclination
43.0021°
Eccentricity
0.0001169
Mean motion
15.27576736 rev/d
Perigee alt
482.3 km
Apogee alt
483.9 km
Semi-major
6,861.2 km
B*
1.6270e-5
RAAN
159.5041°
Arg perigee
271.0122°
Mean anomaly
89.0596°
Rev number
13,333

§ Raw data

STARLINK-317791 59744U 24090Q   26264.13703267  .00000186  00000+0  16270-4 0  99972 59744  43.0021 159.5041 0001169 271.0122  89.0596 15.27576736133337

JSON: /api/v1/satellites/59744 · /tle

For live sub-satellite position, see the globe view (requires WebGL).

§ Visibility from observer

Set your observer location to see the next 7 days of passes ≥ 10°. The values pass through the URL so the page stays shareable.

No JS? Fill the form by hand. The geolocation button needs JavaScript.